Location: Bakov nad Jizerou
(50.4784°N, 14.9394°E)
Time: 15:36:04
(UTC+00:00)

Cosmos 1184 Rocket - Pass Details

Date: 16 June 2021
Orbit: 399 x 413 km, 81.2° (Epoch: 02 August)

Event Time Altitude Azimuth Distance (km) Brightness Sun altitude
Exits shadow 22:38:50 39° 195° (SSW) 639 3.2 -16.0°
Maximum altitude 22:39:55 86° 278° (W) 425 2.7 -16.0°
Drops below altitude 10° 22:43:12 10° 11° (NNE) 1,505 6.8 -16.0°
Sets 22:45:14 0° 12° (NNE) 2,372 8.1 -16.1°
